Regional Weather Roundup
Issued by NWS

Home | Current Version | Previous Version | Text Only | Print | Product List | Glossary On
Versions: 1 2 3 4 5 6 7 8 9 10 11 12 13 14 15 16 17 18 19 20 21 22 23 24 25 26 27 28 29 30 31 32 33 34 35 36 37 38 39 40 41 42 43 44 45 46 47 48 49 50
000
ASUS43 KMPX 211401
RWRMN
WEATHER ROUNDUP FOR MINNESOTA
NATIONAL WEATHER SERVICE TWIN CITIES/CHANHASSEN MN
900 AM CDT TUE OCT 21 2014


NOTE: "FAIR" INDICATES FEW OR NO CLOUDS BELOW 12,000 FEET WITH NO
SIGNIFICANT WEATHER AND/OR OBSTRUCTIONS TO VISIBILITY. N/A MEANS
CURRENT SKY AND/OR WEATHER CONDITIONS ARE NOT AVAILABLE.

MNZ060>063-068>070-211500-
   Twin Cities Metro

CITY           SKY/WX    TMP DP  RH WIND       PRES   REMARKS
TWIN CITIES    SUNNY     43  39  86 E6        30.21R
ST PAUL        SUNNY     43  40  89 VRB3      30.22R
CRYSTAL        SUNNY     40  37  89 CALM      30.19R
BLAINE         SUNNY     39  39 100 MISG        N/A
LAKEVILLE      FOG       34  34 100 CALM      30.20R VSB<1/4
EDEN PRAIRIE   SUNNY     44  40  85 E7        30.19R
SOUTH ST PAUL  SUNNY     43  39  87 CALM      30.21R
LAKE ELMO      FAIR      36  36 100 CALM      30.22R
$$
MNZ001>005-007-008-013>017-022>024-027-028-211500-
   Northwest Minnesota

CITY           SKY/WX    TMP DP  RH WIND       PRES   REMARKS
BEMIDJI        FAIR      38  36  92 SE9       30.12S
HALLOCK        CLEAR     39  37  93 SE14      30.02F
ROSEAU         CLEAR     39  36  87 SE8       30.08F
WARROAD        CLEAR     39  36  87 SE10      30.11R
THIEF RVR FALL CLEAR     39  36  87 SE10      30.06F
CROOKSTON      CLEAR     41  37  87 SE13      30.05S
FOSSTON        FAIR      41  37  87 SE7       30.08S
DETROIT LAKES  SUNNY     41  37  87 SE14      30.09S
MOORHEAD       CLEAR     46  43  87 SE16      30.04F
PARK RAPIDS    SUNNY     38  36  92 SE10      30.13R
MAHNOMEN       FAIR      41  37  85 SE10      30.07S
$$
MNZ006-009>011-018-025>026-211500-
   North Central Minnesota

CITY           SKY/WX    TMP DP  RH WIND       PRES   REMARKS
BAUDETTE       MOSUNNY   38  34  85 SE9       30.13F
FLAG ISLAND    CLEAR     43  37  81 SE17      30.11S
INTL FALLS     MOSUNNY   39  34  82 SE7       30.18R
WASKISH        MOSUNNY   36  34  93 E8        30.13F
BIG FORK       SUNNY     39  37  93 SE5       30.18S
LONGVILLE      SUNNY     36  34  93 SE6       30.16S
GRAND RAPIDS   CLOUDY    37  36  93 SE7       30.19R
CRANE LAKE     CLOUDY    39  34  81 CALM      30.23R
ORR            CLOUDY    39  32  75 SE7       30.18R
COOK           CLOUDY    39  34  81 SE10      30.21R
WALKER         FAIR      39  36  89 SE7       30.14S
$$
MNZ012-019>021-037-211500-
   Northeast Minnesota

CITY           SKY/WX    TMP DP  RH WIND       PRES   REMARKS
DULUTH         CLOUDY    42  34  73 E13       30.21R
ELY            CLOUDY    37  32  81 SE12      30.23R
HIBBING        CLOUDY    42  35  76 SE9       30.20S
EVELETH        CLOUDY    39  34  81 E5        30.22S
DULUTH HARBOR  CLOUDY    45  37  76 E9        30.25R
TWO HARBORS    CLOUDY    45  27  49 E8        30.22R
SILVER BAY     PTSUNNY   43  36  75 NE7       30.23R
GRAND MARAIS     N/A     40  32  73 N3        30.29R
G MARAIS ARPRT CLOUDY    32  27  80 E5        30.25S WCI  27
$$
MNZ029>031-032-039>041-046>048-054>057-064-211500-
   West Central Minnesota

CITY           SKY/WX    TMP DP  RH WIND       PRES   REMARKS
FERGUS FALLS   SUNNY     45  37  76 SE16      30.09S
WHEATON        FAIR      39  36  87 SE12G17   30.08S
MORRIS         FAIR      43  39  87 SE15      30.08S
ALEXANDRIA     SUNNY     40  37  89 SE13      30.13S
ELBOW LAKE     FAIR      44  38  80 SE14      30.08S
WADENA         SUNNY     37  36  93 SE10      30.12S
GLENWOOD       SUNNY     39  37  93 SE12      30.12F
APPLETON       SUNNY     43  39  87 SE13      30.09S
BENSON         SUNNY     43  39  87 S13G20    30.11S
ORTONVILLE     SUNNY     39  37  93 SE12G17   30.07F
MADISON        SUNNY     43  39  87 SE12      30.08F
WILLMAR        FAIR      45  39  81 SE12      30.14F
$$
MNZ033>034-036-042>043-049>051-058-059-211500-
   Central Minnesota

CITY           SKY/WX    TMP DP  RH WIND       PRES   REMARKS
ST CLOUD       MOSUNNY   42  37  82 E8        30.18R
SAUK CENTRE    FAIR      38  37  93 E7        30.14F
PAYNESVILLE    SUNNY     40  38  93 E6        30.16S
AITKIN         SUNNY     39  36  87 E7        30.17S
PINE RIVER     SUNNY     39  37  93 SE7       30.18F
BRAINERD       SUNNY     38  38 100 SE8       30.17F
STAPLES        MOSUNNY   36  36 100 SE5       30.14S
LONG PRAIRIE   FAIR      39  36  87 SE7       30.15S
LITTLE FALLS   MOSUNNY   39  36  87 E6        30.17S
LITCHFIELD     SUNNY     43  43 100 SE8       30.17R
BUFFALO        SUNNY     41  38  89 E6        30.19S
MAPLE LAKE     SUNNY     41  41  99 E5        30.19R
$$
MNZ037-044-045-052-053-211500-
   East Central Minnesota

CITY           SKY/WX    TMP DP  RH WIND       PRES   REMARKS
PRINCETON      SUNNY     39  37  93 E5        30.20R
MORA           SUNNY     37  36  93 E6        30.22R
CAMBRIDGE      SUNNY     41  34  75 CALM      30.19R
RUSH CITY      MOSUNNY   38  37  97 E3        30.21S
MOOSE LAKE     CLOUDY    43  36  75 E5        30.20R
HINCKLEY       FAIR      43  37  81 CALM      30.21R
CLOQUET        CLOUDY    43  36  75 SE5       30.22R
MCGREGOR       SUNNY     37  37 100 E6        30.21R
$$
MNZ071>073-080-081-089-090-097-098-211500-
   Southwest Minnesota

CITY           SKY/WX    TMP DP  RH WIND       PRES   REMARKS
MONTEVIDEO     SUNNY     43  39  87 S9        30.12R
GRANITE FALLS  SUNNY     41  38  89 E9        30.14R
CANBY          SUNNY     38  37  94 SE6       30.09S
MARSHALL       SUNNY     39  34  81 SE10      30.10R
REDWOOD FALLS  SUNNY     42  38  85 E9        30.13S
OLIVIA         SUNNY     43  37  81 SE10      30.13S
PIPESTONE      SUNNY     48  37  66 S9        30.08S
WINDOM         MOSUNNY   43  39  87 CALM      30.13S
WORTHINGTON    MOSUNNY   45  39  81 SE5       30.13S
JACKSON        MOSUNNY   43  37  81 SE5       30.14R
TRACY          SUNNY     48  40  75 S9        30.11S
SLAYTON        FAIR      40  38  90 CALM      30.12S
$$
MNZ065>067-074>077-082>085-091>093-211500-
   South Central Minnesota

CITY           SKY/WX    TMP DP  RH WIND       PRES   REMARKS
MANKATO        MOSUNNY   45  37  76 E10       30.17R
NEW ULM        SUNNY     41  41 100 SE5       30.16R
ST JAMES       MOSUNNY   41  37  87 E5        30.16R
FAIRMONT       MOSUNNY   39  36  87 SE7       30.15R
GLENCOE        SUNNY     43  41  93 E6        30.16S
FARIBAULT      SUNNY     41  39  93 E5        30.19R
OWATONNA       SUNNY     43  39  87 E7        30.18R
WASECA         SUNNY     41  36  81 E9        30.19S
ALBERT LEA     SUNNY     41  39  93 CALM      30.18R
$$
MNZ078>079-086>088-094>096-211500-
   Southeast Minnesota

CITY           SKY/WX    TMP DP  RH WIND       PRES   REMARKS
ROCHESTER      MOSUNNY   42  39  89 E8        30.20R
RED WING       SUNNY     43  41  93 E5        30.21R
STANTON        SUNNY     34  32  94 CALM      30.19R FOG
DODGE CENTER   MOSUNNY   43  41  93 E6        30.19R
WINONA         CLOUDY    39  39 100 CALM      30.22S VSB<1/4
AUSTIN         MOSUNNY   43  39  87 E3        30.18R
PRESTON        SUNNY     41  38  89 E6        30.20R
$$
ABBREVIATIONS USED IN REMARKS
   TC - TEMPERATURES IN CELSIUS
  WCI - WIND CHILL INDEX
   HX - HEAT INDEX
  VSB - VISIBILITY
$$



USA.gov is the U.S. government's official web portal to all federal, state and local government web resources and services.